Torna al catalogo

MOLNIYA 1-40

AttivoComunicazioniHEO
NORAD 10925·PAYLOAD·🇷🇺 Russia

Lanciato Jun 2, 1978 da Plesetsk Cosmodrome

Loading…

Prossimi Passaggi (prossime 24 ore)

TLE

AggiornatoSource: Space-Track

Epoca: Sep 14, 2026, 09:44 UTC

1 10925U 78055A   26257.40602127 -.00000214  00000-0  00000-0 0  9994
2 10925  64.0175 212.9845 6710357 273.6441  17.9060  2.00690324353773

Traccia MOLNIYA 1-40 in tempo reale con AllMySat

Download on the App Store